Flag for U.S.A. Weather past 2 weeks in Winder, Georgia, U.S.A.

Now
43 °F

Fog.


Feels Like: 40 °F
Forecast: 42 / 52 °F
Wind: 5 mph from East

Location: Gilmer Memorial Airport

Current Time: Dec 21, 2014 at 1:42:43 AM

Latest Report: Dec 21, 2014 at 12:53 AM


Visibility: 2 mi

Pressure: 30.22 "Hg

Humidity: 93%

Dew point: 41 °F

Location of WinderLocation

Historic Weather in Winder — Graph

°F

Winder temperature yesterday

Maximum temperature yesterday: 46 °F (at 1:53 PM)
Minimum temperature yesterday: 42 °F (at 2:53 AM)
Average temperature yesterday: 44 °F

Past Weeks' High & Low Weather Summary

 TemperatureHumidityPressure
High64 °F (Dec 13, 1:53 PM)100% (Dec 6, 12:53 AM)30.37 "Hg (Dec 6, 12:53 AM)
Low30 °F (Dec 11, 2:53 AM)15% (Dec 12, 4:53 PM)29.95 "Hg (Dec 16, 6:53 AM)
Average44 °F67%30.14 "Hg
* Reported Dec 5 11:53 PM — Dec 20 11:53 PM, Winder, Weather by CustomWeather, © 2014

Note: Actual official high and low records may vary slightly from our data, if they occured in-between our weather recording intervals... More about our weather records

Advertising

Winder weather history for previous 24 hours

 ConditionsComfort  
Time TempWeatherWind HumidityBarometerVisibility
11:53 PM
Dec 20
43 °FFog.6 mph93%30.22 "Hg3 mi
10:53 PM43 °FFog.6 mph93%30.22 "Hg4 mi
9:53 PM43 °FFog.6 mph93%30.22 "Hg4 mi
8:53 PM44 °FFog.5 mph89%30.22 "Hg4 mi
8:01 PM44 °FFog.6 mph89%30.21 "Hg4 mi
7:53 PM44 °FFog.6 mph93%30.22 "Hg5 mi
6:53 PM45 °FFog.6 mph86%30.20 "Hg5 mi
5:53 PM45 °FFog.5 mph90%30.19 "Hg6 mi
4:53 PM46 °FFog.5 mph86%30.18 "Hg5 mi
3:53 PM46 °FFog.3 mph86%30.17 "Hg5 mi
2:53 PM46 °FFog.6 mph86%30.16 "Hg5 mi
2:03 PM46 °FFog.5 mph86%30.17 "Hg5 mi
1:53 PM46 °FFog.3 mph86%30.17 "Hg5 mi
12:53 PM45 °FFog.6 mph86%30.19 "Hg5 mi
11:53 AM45 °FFog.8 mph90%30.21 "Hg6 mi
10:53 AM44 °FOvercast.5 mph89%30.22 "Hg7 mi
9:53 AM44 °FOvercast.7 mph89%30.22 "Hg7 mi
8:53 AM43 °FOvercast.7 mph93%30.21 "Hg8 mi
7:53 AM43 °FLight rain. Mostly cloudy.5 mph93%30.18 "Hg8 mi
6:53 AM44 °FLight rain. Mostly cloudy.5 mph89%30.16 "Hg9 mi
5:53 AM43 °FLight rain. Overcast.3 mph93%30.14 "Hg10 mi
4:53 AM43 °FLight rain. Mostly cloudy.5 mph93%30.12 "Hg7 mi
3:53 AM43 °FLight rain. Fog.6 mph89%30.14 "Hg6 mi
2:53 AM42 °FLight rain. Overcast.3 mph89%30.15 "Hg7 mi
1:53 AM43 °FLight rain. Overcast.No wind79%30.14 "Hg10 mi
Weather by CustomWeather, © 2014

See weather overviewHow to use our weather pages